QPF
0.00 0.00 0.00 0.00 0.00 0.00 0.00 0.00 0.00 0.00 0.00 0.00 0.01 0.01 0.01 0.01 0.01 0.02 0.02 0.03 0.05 0.07 0.07 0.10 0.13 0.20 0.31 0.38 0.44 0.37 0.29 0.23 0.19 0.15 0.14 0.13 0.11 0.07 0.06 0.04 0.03 0.02 0.02 0.02
0.00 0.00 0.00 0.00 0.00 0.00 0.00 0.00 0.00 0.00 0.00 0.00 0.01 0.01 0.01 0.01 0.01 0.02 0.02 0.02 0.03 0.05 0.05 0.07 0.10 0.19 0.27 0.38 0.41 0.36 0.29 0.26 0.23 0.18 0.17 0.16 0.13 0.12 0.09 0.06 0.04 0.03 0.03 0.01
0.00 0.00 0.00 0.00 0.00 0.00 0.00 0.00 0.00 0.00 0.00 0.00 0.00 0.01 0.01 0.01 0.01 0.01 0.01 0.02 0.02 0.03 0.03 0.04 0.05 0.11 0.22 0.35 0.41 0.34 0.26 0.22 0.23 0.22 0.18 0.16 0.13 0.11 0.06 0.04 0.03 0.03 0.02 0.02
0.00 0.00 0.00 0.00 0.00 0.00 0.00 0.00 0.00 0.00 0.00 0.00 0.00 0.00 0.00 0.00 0.00 0.01 0.01 0.01 0.01 0.02 0.03 0.03 0.03 0.06 0.14 0.29 0.32 0.32 0.26 0.18 0.17 0.17 0.15 0.10 0.07 0.06 0.04 0.03 0.03 0.02 0.02 0.02
0.00 0.00 0.00 0.00 0.00 0.00 0.00 0.00 0.00 0.00 0.00 0.00 0.00 0.00 0.00 0.00 0.00 0.00 0.01 0.01 0.01 0.02 0.03 0.03 0.03 0.06 0.13 0.26 0.29 0.28 0.26 0.19 0.16 0.13 0.12 0.10 0.08 0.06 0.05 0.05 0.04 0.02 0.01 0.00
0.00 0.00 0.00 0.00 0.00 0.00 0.00 0.00 0.00 0.00 0.00 0.00 0.00 0.00 0.00 0.00 0.00 0.00 0.00 0.00 0.00 0.00 0.02 0.03 0.03 0.07 0.14 0.20 0.23 0.24 0.21 0.19 0.15 0.13 0.13 0.12 0.09 0.07 0.05 0.04 0.03 0.02 0.01 0.00
0.00 0.00 0.00 0.00 0.00 0.00 0.00 0.00 0.00 0.00 0.00 0.00 0.00 0.00 0.00 0.00 0.00 0.00 0.00 0.00 0.00 0.00 0.01 0.02 0.02 0.05 0.10 0.11 0.15 0.16 0.17 0.14 0.10 0.10 0.12 0.12 0.10 0.07 0.05 0.04 0.03 0.03 0.01 0.01
0.00 0.00 0.00 0.00 0.00 0.00 0.00 0.00 0.00 0.00 0.00 0.00 0.00 0.00 0.00 0.00 0.00 0.00 0.00 0.00 0.00 0.00 0.01 0.02 0.02 0.02 0.05 0.04 0.08 0.08 0.09 0.10 0.09 0.10 0.12 0.12 0.08 0.06 0.04 0.03 0.03 0.02 0.01 0.01
0.00 0.00 0.00 0.00 0.00 0.00 0.00 0.00 0.00 0.00 0.00 0.00 0.00 0.00 0.00 0.00 0.00 0.00 0.00 0.00 0.00 0.00 0.01 0.02 0.01 0.01 0.03 0.05 0.05 0.04 0.05 0.07 0.08 0.08 0.11 0.12 0.08 0.05 0.03 0.02 0.02 0.02 0.01 0.01
0.00 0.00 0.00 0.00 0.00 0.00 0.00 0.00 0.00 0.01 0.01 0.01 0.00 0.00 0.00 0.00 0.00 0.00 0.00 0.00 0.00 0.00 0.01 0.02 0.02 0.02 0.03 0.05 0.06 0.07 0.07 0.07 0.07 0.08 0.06 0.05 0.05 0.04 0.03 0.03 0.02 0.02 0.01 0.01
0.00 0.00 0.00 0.00 0.00 0.00 0.00 0.00 0.00 0.01 0.01 0.01 0.01 0.01 0.00 0.00 0.00 0.00 0.00 0.00 0.00 0.00 0.01 0.01 0.01 0.01 0.02 0.03 0.05 0.07 0.07 0.07 0.06 0.07 0.06 0.05 0.03 0.03 0.03 0.02 0.01 0.02 0.01 0.01
0.00 0.00 0.00 0.00 0.00 0.00 0.00 0.00 0.01 0.01 0.01 0.01 0.01 0.00 0.00 0.00 0.00 0.00 0.00 0.01 0.01 0.00 0.01 0.01 0.01 0.02 0.03 0.04 0.04 0.06 0.08 0.08 0.07 0.07 0.07 0.05 0.04 0.03 0.02 0.01 0.02 0.02 0.02 0.02
0.00 0.00 0.00 0.00 0.00 0.00 0.00 0.00 0.00 0.01 0.01 0.01 0.01 0.00 0.00 0.00 0.00 0.00 0.00 0.01 0.01 0.01 0.01 0.01 0.02 0.02 0.02 0.06 0.06 0.06 0.07 0.07 0.06 0.07 0.07 0.05 0.04 0.03 0.02 0.02 0.02 0.02 0.03 0.03
0.00 0.00 0.00 0.00 0.00 0.01 0.01 0.01 0.01 0.01 0.00 0.00 0.01 0.00 0.00 0.00 0.00 0.00 0.01 0.01 0.01 0.01 0.01 0.02 0.02 0.02 0.02 0.03 0.06 0.07 0.07 0.07 0.08 0.08 0.06 0.04 0.03 0.04 0.04 0.04 0.04 0.03 0.03 0.02
0.00 0.00 0.00 0.00 0.00 0.00 0.00 0.01 0.01 0.01 0.01 0.01 0.01 0.01 0.00 0.00 0.00 0.01 0.01 0.02 0.02 0.02 0.02 0.01 0.02 0.03 0.04 0.04 0.05 0.07 0.05 0.05 0.07 0.07 0.05 0.04 0.04 0.05 0.05 0.04 0.04 0.03 0.04 0.04
0.00 0.00 0.00 0.00 0.00 0.01 0.01 0.01 0.01 0.01 0.01 0.01 0.01 0.01 0.01 0.01 0.01 0.01 0.02 0.02 0.07 0.07 0.05 0.04 0.02 0.03 0.05 0.05 0.05 0.03 0.03 0.05 0.07 0.06 0.05 0.06 0.06 0.05 0.07 0.07 0.05 0.05 0.05 0.06
0.00 0.01 0.01 0.01 0.01 0.01 0.01 0.01 0.01 0.02 0.01 0.01 0.01 0.01 0.01 0.01 0.02 0.02 0.03 0.03 0.04 0.05 0.04 0.04 0.04 0.04 0.05 0.05 0.05 0.04 0.04 0.05 0.07 0.09 0.10 0.10 0.08 0.07 0.08 0.09 0.07 0.07 0.08 0.08
0.01 0.01 0.01 0.02 0.02 0.02 0.01 0.02 0.03 0.03 0.02 0.01 0.01 0.02 0.02 0.03 0.04 0.05 0.05 0.05 0.05 0.04 0.03 0.03 0.03 0.03 0.04 0.04 0.04 0.04 0.04 0.05 0.06 0.08 0.09 0.10 0.11 0.10 0.10 0.10 0.10 0.10 0.10 0.10
0.02 0.02 0.03 0.04 0.03 0.03 0.03 0.03 0.05 0.05 0.04 0.03 0.03 0.03 0.04 0.04 0.04 0.06 0.10 0.10 0.07 0.04 0.03 0.04 0.04 0.04 0.03 0.04 0.05 0.05 0.06 0.07 0.09 0.10 0.10 0.10 0.12 0.13 0.14 0.14 0.14 0.14 0.14 0.15
0.03 0.03 0.04 0.06 0.04 0.04 0.04 0.04 0.05 0.06 0.07 0.05 0.05 0.07 0.07 0.07 0.05 0.05 0.07 0.08 0.06 0.04 0.03 0.04 0.06 0.06 0.06 0.06 0.07 0.07 0.08 0.10 0.12 0.12 0.11 0.11 0.12 0.12 0.11 0.11 0.11 0.13 0.14 0.15
0.03 0.03 0.04 0.06 0.05 0.05 0.05 0.06 0.07 0.08 0.11 0.07 0.06 0.08 0.09 0.09 0.08 0.06 0.04 0.05 0.05 0.04 0.03 0.03 0.04 0.05 0.07 0.08 0.07 0.09 0.11 0.13 0.13 0.14 0.17 0.14 0.13 0.12 0.11 0.11 0.11 0.12 0.15 0.16
0.05 0.08 0.06 0.04 0.05 0.05 0.05 0.09 0.10 0.10 0.11 0.10 0.09 0.10 0.10 0.09 0.09 0.08 0.05 0.04 0.04 0.03 0.03 0.04 0.03 0.03 0.04 0.06 0.07 0.09 0.11 0.11 0.11 0.12 0.13 0.15 0.17 0.18 0.17 0.14 0.13 0.14 0.16 0.15
0.06 0.10 0.10 0.07 0.07 0.09 0.08 0.12 0.14 0.13 0.13 0.12 0.11 0.11 0.10 0.09 0.09 0.08 0.06 0.04 0.03 0.02 0.02 0.02 0.03 0.03 0.03 0.04 0.04 0.05 0.06 0.06 0.05 0.05 0.05 0.06 0.06 0.06 0.05 0.05 0.07 0.09 0.10 0.09
0.07 0.10 0.13 0.14 0.14 0.15 0.17 0.19 0.17 0.14 0.13 0.12 0.11 0.09 0.09 0.08 0.06 0.06 0.05 0.05 0.03 0.02 0.01 0.01 0.01 0.01 0.01 0.02 0.02 0.02 0.02 0.03 0.03 0.04 0.04 0.04 0.04 0.04 0.04 0.04 0.03 0.03 0.04 0.05
0.08 0.11 0.18 0.22 0.22 0.19 0.19 0.22 0.20 0.13 0.11 0.10 0.11 0.11 0.10 0.07 0.05 0.04 0.02 0.02 0.01 0.01 0.01 0.00 0.00 0.00 0.00 0.01 0.01 0.01 0.01 0.01 0.03 0.04 0.04 0.04 0.04 0.05 0.05 0.05 0.04 0.04 0.03 0.03
0.09 0.14 0.20 0.20 0.16 0.15 0.15 0.18 0.20 0.18 0.12 0.10 0.11 0.12 0.09 0.06 0.05 0.03 0.02 0.01 0.00 0.00 0.00 0.00 0.00 0.00 0.00 0.00 0.00 0.00 0.00 0.00 0.01 0.01 0.02 0.02 0.03 0.04 0.04 0.04 0.04 0.05 0.04 0.03
MSLP
1010.74 1011.43 1011.91 1012.19 1012.31 1012.29 1012.19 1012.02 1011.80 1011.50 1011.11 1010.62 1010.05 1009.44 1008.84 1008.33 1007.99 1007.85 1007.95 1008.26 1008.73 1009.27 1009.81 1010.27 1010.61 1010.83 1010.96 1011.05 1011.16 1011.37 1011.70 1012.16 1012.72 1013.35 1013.99 1014.58 1015.09 1015.50 1015.83 1016.10 1016.34 1016.60 1016.90 1017.24
1011.06 1011.60 1011.94 1012.10 1012.15 1012.13 1012.11 1012.08 1012.04 1011.94 1011.74 1011.40 1010.94 1010.37 1009.76 1009.20 1008.78 1008.55 1008.55 1008.76 1009.14 1009.59 1010.04 1010.41 1010.66 1010.79 1010.84 1010.87 1010.96 1011.17 1011.54 1012.08 1012.75 1013.48 1014.21 1014.88 1015.43 1015.86 1016.17 1016.40 1016.61 1016.83 1017.10 1017.44
1011.06 1011.43 1011.62 1011.68 1011.69 1011.72 1011.81 1011.96 1012.13 1012.25 1012.25 1012.08 1011.72 1011.18 1010.56 1009.93 1009.40 1009.06 1008.95 1009.05 1009.33 1009.71 1010.08 1010.38 1010.57 1010.65 1010.66 1010.67 1010.75 1010.99 1011.42 1012.04 1012.80 1013.63 1014.44 1015.18 1015.77 1016.20 1016.50 1016.70 1016.87 1017.05 1017.30 1017.62
1010.76 1010.97 1011.02 1011.00 1011.01 1011.12 1011.37 1011.73 1012.13 1012.48 1012.68 1012.65 1012.37 1011.86 1011.19 1010.48 1009.84 1009.37 1009.13 1009.13 1009.32 1009.63 1009.95 1010.23 1010.40 1010.47 1010.47 1010.49 1010.60 1010.87 1011.35 1012.03 1012.85 1013.75 1014.63 1015.40 1016.02 1016.47 1016.75 1016.93 1017.07 1017.23 1017.45 1017.76
1010.29 1010.34 1010.28 1010.23 1010.27 1010.49 1010.91 1011.48 1012.12 1012.68 1013.06 1013.16 1012.93 1012.41 1011.68 1010.86 1010.09 1009.48 1009.12 1009.02 1009.15 1009.41 1009.73 1010.01 1010.21 1010.30 1010.34 1010.39 1010.53 1010.83 1011.34 1012.05 1012.90 1013.82 1014.72 1015.52 1016.15 1016.60 1016.88 1017.05 1017.18 1017.32 1017.53 1017.82
1009.77 1009.69 1009.56 1009.50 1009.61 1009.97 1010.56 1011.34 1012.17 1012.92 1013.44 1013.61 1013.41 1012.86 1012.04 1011.10 1010.20 1009.47 1009.00 1008.82 1008.90 1009.15 1009.49 1009.82 1010.07 1010.23 1010.33 1010.42 1010.58 1010.90 1011.40 1012.09 1012.92 1013.83 1014.71 1015.50 1016.13 1016.58 1016.87 1017.05 1017.17 1017.32 1017.52 1017.80
1009.33 1009.16 1009.00 1008.96 1009.16 1009.64 1010.40 1011.34 1012.34 1013.22 1013.82 1014.03 1013.82 1013.20 1012.29 1011.23 1010.21 1009.37 1008.82 1008.59 1008.65 1008.92 1009.31 1009.71 1010.05 1010.29 1010.45 1010.59 1010.77 1011.07 1011.54 1012.17 1012.94 1013.78 1014.62 1015.36 1015.97 1016.42 1016.72 1016.91 1017.06 1017.21 1017.42 1017.70
1009.04 1008.82 1008.66 1008.67 1008.96 1009.56 1010.44 1011.51 1012.60 1013.55 1014.17 1014.38 1014.12 1013.43 1012.43 1011.28 1010.16 1009.25 1008.64 1008.39 1008.45 1008.77 1009.23 1009.72 1010.15 1010.47 1010.70 1010.88 1011.07 1011.34 1011.74 1012.29 1012.96 1013.71 1014.46 1015.14 1015.72 1016.16 1016.46 1016.68 1016.85 1017.03 1017.25 1017.54
1008.91 1008.69 1008.56 1008.63 1009.00 1009.68 1010.63 1011.76 1012.88 1013.82 1014.43 1014.58 1014.26 1013.50 1012.43 1011.22 1010.06 1009.11 1008.49 1008.24 1008.34 1008.71 1009.24 1009.82 1010.33 1010.74 1011.03 1011.24 1011.42 1011.65 1011.98 1012.42 1012.98 1013.61 1014.27 1014.88 1015.41 1015.83 1016.14 1016.38 1016.58 1016.79 1017.03 1017.31
1008.91 1008.72 1008.64 1008.77 1009.19 1009.91 1010.88 1011.99 1013.07 1013.96 1014.49 1014.57 1014.18 1013.37 1012.26 1011.04 1009.87 1008.94 1008.34 1008.13 1008.27 1008.70 1009.29 1009.94 1010.52 1010.99 1011.33 1011.57 1011.75 1011.94 1012.19 1012.54 1012.99 1013.51 1014.06 1014.60 1015.08 1015.47 1015.79 1016.05 1016.27 1016.49 1016.75 1017.03
1008.96 1008.83 1008.81 1008.99 1009.44 1010.15 1011.07 1012.10 1013.08 1013.84 1014.26 1014.25 1013.81 1012.97 1011.88 1010.69 1009.59 1008.72 1008.18 1008.02 1008.21 1008.67 1009.31 1009.99 1010.61 1011.12 1011.50 1011.75 1011.93 1012.10 1012.31 1012.59 1012.95 1013.38 1013.85 1014.31 1014.74 1015.11 1015.42 1015.68 1015.91 1016.15 1016.40 1016.68
1009.02 1008.96 1009.00 1009.21 1009.65 1010.31 1011.13 1012.01 1012.83 1013.43 1013.72 1013.62 1013.14 1012.32 1011.28 1010.18 1009.18 1008.41 1007.96 1007.86 1008.09 1008.57 1009.21 1009.89 1010.52 1011.04 1011.43 1011.71 1011.91 1012.08 1012.27 1012.52 1012.83 1013.20 1013.61 1014.02 1014.40 1014.74 1015.03 1015.28 1015.51 1015.74 1015.98 1016.25
1009.07 1009.08 1009.17 1009.40 1009.80 1010.35 1011.03 1011.73 1012.34 1012.76 1012.90 1012.71 1012.20 1011.43 1010.49 1009.53 1008.66 1008.02 1007.67 1007.63 1007.87 1008.34 1008.95 1009.59 1010.19 1010.70 1011.10 1011.39 1011.62 1011.82 1012.04 1012.30 1012.61 1012.96 1013.33 1013.70 1014.04 1014.35 1014.61 1014.83 1015.04 1015.25 1015.48 1015.72
1009.13 1009.21 1009.34 1009.56 1009.89 1010.32 1010.81 1011.28 1011.67 1011.89 1011.88 1011.61 1011.09 1010.38 1009.57 1008.76 1008.06 1007.56 1007.31 1007.32 1007.57 1008.00 1008.54 1009.11 1009.65 1010.12 1010.51 1010.83 1011.10 1011.36 1011.63 1011.94 1012.28 1012.64 1013.01 1013.36 1013.67 1013.94 1014.16 1014.35 1014.52 1014.70 1014.89 1015.10
1009.27 1009.40 1009.56 1009.75 1009.99 1010.26 1010.55 1010.79 1010.94 1010.95 1010.78 1010.43 1009.92 1009.29 1008.61 1007.97 1007.44 1007.08 1006.93 1006.98 1007.21 1007.58 1008.03 1008.50 1008.96 1009.38 1009.75 1010.09 1010.42 1010.75 1011.10 1011.49 1011.89 1012.29 1012.67 1013.01 1013.30 1013.52 1013.70 1013.84 1013.97 1014.10 1014.25 1014.43
1009.55 1009.73 1009.89 1010.03 1010.16 1010.26 1010.32 1010.32 1010.23 1010.03 1009.72 1009.30 1008.79 1008.24 1007.70 1007.22 1006.86 1006.63 1006.57 1006.65 1006.86 1007.15 1007.50 1007.87 1008.24 1008.60 1008.95 1009.31 1009.69 1010.11 1010.56 1011.03 1011.50 1011.95 1012.35 1012.69 1012.95 1013.14 1013.26 1013.35 1013.43 1013.51 1013.61 1013.76
1010.00 1010.20 1010.34 1010.41 1010.42 1010.34 1010.19 1009.95 1009.63 1009.24 1008.79 1008.30 1007.80 1007.33 1006.91 1006.59 1006.37 1006.28 1006.29 1006.40 1006.58 1006.81 1007.07 1007.34 1007.62 1007.92 1008.26 1008.64 1009.08 1009.57 1010.11 1010.66 1011.20 1011.70 1012.12 1012.46 1012.69 1012.84 1012.91 1012.95 1012.96 1013.00 1013.06 1013.17
1010.62 1010.80 1010.89 1010.87 1010.74 1010.49 1010.14 1009.68 1009.17 1008.60 1008.03 1007.49 1007.00 1006.60 1006.30 1006.11 1006.03 1006.05 1006.14 1006.28 1006.45 1006.63 1006.81 1007.01 1007.22 1007.49 1007.81 1008.21 1008.70 1009.26 1009.86 1010.48 1011.08 1011.61 1012.04 1012.37 1012.57 1012.68 1012.70 1012.69 1012.66 1012.65 1012.67 1012.74
1011.30 1011.43 1011.44 1011.32 1011.04 1010.63 1010.09 1009.46 1008.78 1008.09 1007.43 1006.85 1006.39 1006.05 1005.85 1005.79 1005.84 1005.96 1006.13 1006.31 1006.49 1006.65 1006.80 1006.96 1007.14 1007.38 1007.70 1008.12 1008.64 1009.24 1009.90 1010.56 1011.18 1011.73 1012.16 1012.46 1012.63 1012.70 1012.68 1012.62 1012.56 1012.51 1012.51 1012.56
1011.91 1011.95 1011.86 1011.61 1011.20 1010.64 1009.96 1009.20 1008.40 1007.62 1006.92 1006.34 1005.91 1005.65 1005.56 1005.61 1005.77 1006.00 1006.25 1006.50 1006.71 1006.89 1007.05 1007.19 1007.37 1007.62 1007.95 1008.39 1008.93 1009.55 1010.22 1010.90 1011.52 1012.05 1012.46 1012.73 1012.88 1012.91 1012.86 1012.77 1012.68 1012.62 1012.60 1012.63
1012.31 1012.23 1012.01 1011.63 1011.10 1010.43 1009.64 1008.80 1007.94 1007.14 1006.45 1005.90 1005.54 1005.37 1005.37 1005.54 1005.81 1006.14 1006.49 1006.81 1007.09 1007.32 1007.51 1007.70 1007.90 1008.17 1008.53 1008.98 1009.53 1010.15 1010.81 1011.46 1012.05 1012.55 1012.92 1013.16 1013.27 1013.28 1013.21 1013.11 1013.02 1012.95 1012.93 1012.95
1012.40 1012.17 1011.81 1011.31 1010.67 1009.92 1009.09 1008.22 1007.38 1006.61 1005.97 1005.51 1005.24 1005.17 1005.28 1005.55 1005.93 1006.36 1006.81 1007.22 1007.58 1007.89 1008.16 1008.40 1008.66 1008.97 1009.35 1009.81 1010.35 1010.95 1011.57 1012.17 1012.71 1013.16 1013.48 1013.68 1013.77 1013.76 1013.69 1013.59 1013.51 1013.46 1013.45 1013.48
1012.13 1011.74 1011.24 1010.63 1009.92 1009.13 1008.31 1007.48 1006.71 1006.03 1005.51 1005.16 1005.01 1005.05 1005.27 1005.65 1006.13 1006.66 1007.19 1007.70 1008.16 1008.56 1008.91 1009.24 1009.56 1009.92 1010.32 1010.78 1011.30 1011.86 1012.42 1012.95 1013.42 1013.80 1014.07 1014.23 1014.29 1014.28 1014.22 1014.15 1014.09 1014.07 1014.09 1014.14
1011.53 1011.00 1010.38 1009.69 1008.94 1008.16 1007.39 1006.66 1006.01 1005.48 1005.10 1004.90 1004.88 1005.05 1005.38 1005.85 1006.41 1007.02 1007.64 1008.24 1008.79 1009.28 1009.72 1010.13 1010.52 1010.92 1011.34 1011.80 1012.28 1012.78 1013.26 1013.71 1014.10 1014.41 1014.62 1014.75 1014.80 1014.80 1014.76 1014.73 1014.71 1014.72 1014.78 1014.86
1010.74 1010.08 1009.37 1008.63 1007.88 1007.16 1006.49 1005.90 1005.41 1005.05 1004.85 1004.80 1004.92 1005.20 1005.63 1006.18 1006.81 1007.48 1008.17 1008.83 1009.46 1010.03 1010.55 1011.03 1011.47 1011.91 1012.34 1012.77 1013.20 1013.63 1014.03 1014.39 1014.70 1014.94 1015.10 1015.21 1015.25 1015.27 1015.27 1015.28 1015.31 1015.37 1015.46 1015.58
1009.90 1009.15 1008.39 1007.65 1006.95 1006.32 1005.78 1005.35 1005.04 1004.86 1004.83 1004.94 1005.19 1005.58 1006.08 1006.68 1007.35 1008.06 1008.78 1009.49 1010.16 1010.79 1011.37 1011.89 1012.38 1012.83 1013.25 1013.65 1014.02 1014.37 1014.69 1014.97 1015.20 1015.37 1015.50 1015.59 1015.65 1015.69 1015.74 1015.80 1015.88 1015.99 1016.12 1016.27
Thickness
5767 5753 5744 5748 5753 5755 5753 5749 5745 5759 5777 5771 5765 5763 5768 5771 5768 5764 5760 5756 5751 5749 5748 5746 5742 5739 5735 5732 5731 5730 5729 5728 5727 5725 5724 5722 5722 5723 5723 5724 5724 5724 5722 5721
5750 5745 5758 5763 5762 5757 5751 5745 5747 5761 5773 5768 5760 5760 5767 5768 5765 5764 5760 5756 5753 5749 5745 5743 5740 5737 5735 5732 5731 5730 5729 5727 5727 5726 5725 5723 5722 5721 5721 5722 5722 5722 5721 5720
5744 5755 5768 5762 5757 5752 5750 5747 5749 5753 5762 5761 5755 5751 5757 5764 5765 5764 5762 5759 5755 5750 5746 5743 5740 5737 5735 5732 5730 5731 5728 5726 5726 5725 5723 5721 5719 5718 5717 5718 5719 5720 5720 5719
5747 5760 5762 5757 5754 5755 5744 5762 5760 5757 5744 5734 5742 5724 5746 5753 5754 5757 5757 5756 5753 5752 5749 5745 5742 5738 5736 5734 5731 5729 5727 5725 5724 5724 5722 5720 5719 5717 5717 5718 5718 5719 5719 5718
5745 5759 5757 5753 5760 5763 5758 5766 5759 5753 5741 5730 5732 5722 5733 5747 5747 5752 5756 5757 5756 5754 5751 5748 5744 5742 5739 5736 5733 5729 5725 5723 5723 5722 5721 5720 5719 5718 5717 5717 5717 5717 5717 5717
5754 5766 5766 5765 5773 5773 5768 5756 5745 5732 5724 5715 5726 5719 5725 5739 5749 5754 5757 5758 5758 5756 5753 5750 5746 5743 5739 5737 5734 5729 5725 5723 5722 5721 5720 5720 5718 5717 5715 5715 5714 5714 5714 5715
5742 5755 5768 5774 5762 5764 5758 5732 5710 5708 5700 5706 5723 5719 5727 5754 5760 5759 5758 5758 5759 5758 5754 5750 5746 5742 5738 5736 5734 5731 5727 5723 5722 5721 5720 5720 5719 5718 5717 5716 5715 5713 5713 5714
5723 5729 5757 5767 5762 5751 5748 5735 5708 5698 5695 5704 5718 5717 5742 5764 5766 5765 5763 5761 5760 5757 5755 5752 5748 5743 5740 5739 5735 5732 5729 5725 5724 5723 5722 5721 5720 5719 5718 5718 5717 5716 5716 5716
5719 5727 5759 5769 5772 5761 5743 5733 5736 5711 5706 5701 5710 5726 5747 5764 5762 5762 5761 5759 5758 5757 5755 5753 5750 5746 5743 5740 5738 5736 5732 5728 5726 5725 5724 5723 5722 5720 5719 5718 5718 5717 5716 5716
5733 5727 5747 5760 5765 5760 5755 5738 5718 5707 5695 5692 5708 5718 5730 5752 5755 5757 5757 5756 5757 5756 5755 5753 5750 5748 5746 5744 5741 5737 5735 5731 5729 5727 5726 5725 5723 5722 5720 5718 5717 5716 5716 5715
5735 5723 5732 5743 5744 5741 5739 5731 5720 5705 5704 5694 5694 5715 5752 5756 5759 5758 5757 5757 5756 5754 5753 5752 5751 5749 5747 5744 5740 5737 5735 5732 5730 5729 5727 5725 5724 5722 5721 5719 5718 5717 5716 5715
5727 5714 5710 5725 5743 5749 5744 5733 5718 5708 5704 5699 5697 5718 5762 5761 5761 5760 5757 5757 5757 5755 5754 5752 5751 5748 5745 5743 5741 5738 5736 5734 5732 5730 5727 5726 5724 5722 5720 5720 5719 5718 5716 5715
5721 5706 5696 5703 5717 5732 5732 5730 5723 5713 5702 5692 5695 5721 5757 5756 5757 5758 5757 5755 5754 5753 5751 5750 5749 5747 5745 5743 5741 5738 5736 5733 5732 5730 5727 5725 5723 5721 5720 5720 5719 5717 5715 5713
5719 5700 5694 5692 5702 5716 5720 5723 5719 5711 5698 5695 5706 5726 5745 5748 5750 5752 5753 5752 5751 5749 5748 5746 5745 5744 5743 5742 5740 5737 5734 5733 5731 5729 5726 5724 5723 5722 5721 5720 5718 5716 5714 5712
5709 5694 5698 5701 5710 5713 5715 5718 5717 5712 5711 5708 5719 5725 5738 5745 5748 5749 5750 5748 5746 5745 5744 5742 5741 5741 5740 5738 5737 5735 5734 5732 5731 5727 5724 5723 5722 5721 5719 5717 5716 5714 5712 5711
5693 5688 5689 5692 5703 5705 5705 5714 5716 5716 5717 5717 5722 5726 5740 5743 5745 5745 5745 5744 5742 5741 5741 5740 5739 5738 5737 5736 5735 5734 5732 5731 5729 5725 5723 5722 5719 5717 5715 5714 5713 5711 5710 5708
5677 5675 5670 5670 5687 5690 5685 5706 5712 5714 5721 5721 5718 5729 5735 5734 5735 5736 5736 5738 5737 5737 5736 5735 5734 5734 5733 5733 5733 5731 5730 5728 5726 5723 5721 5718 5716 5714 5712 5711 5710 5708 5707 5705
5666 5662 5656 5658 5667 5659 5690 5713 5718 5716 5720 5723 5726 5729 5731 5730 5727 5727 5729 5729 5728 5729 5729 5729 5729 5728 5729 5729 5729 5728 5726 5723 5720 5718 5716 5714 5712 5710 5708 5707 5705 5704 5703 5701
5662 5656 5648 5646 5649 5662 5686 5702 5707 5705 5707 5720 5720 5722 5722 5721 5720 5716 5719 5720 5719 5719 5721 5721 5722 5722 5722 5722 5723 5722 5719 5716 5714 5712 5710 5709 5707 5704 5702 5700 5700 5698 5696 5695
5653 5650 5645 5641 5644 5649 5676 5696 5705 5702 5694 5713 5715 5714 5713 5714 5707 5704 5708 5710 5710 5710 5712 5713 5713 5714 5714 5713 5714 5713 5710 5708 5706 5704 5703 5702 5699 5698 5695 5693 5692 5690 5689 5687
5643 5640 5638 5637 5640 5655 5677 5690 5694 5680 5690 5706 5708 5707 5706 5704 5703 5700 5699 5699 5699 5700 5701 5703 5704 5703 5702 5703 5704 5702 5699 5696 5695 5695 5693 5692 5691 5689 5687 5685 5683 5681 5679 5677
5636 5633 5633 5632 5634 5648 5675 5680 5678 5683 5693 5697 5697 5698 5696 5694 5693 5690 5689 5688 5688 5688 5690 5691 5691 5690 5689 5691 5692 5690 5686 5684 5684 5684 5683 5681 5679 5679 5677 5674 5672 5670 5667 5665
5635 5636 5635 5636 5643 5657 5666 5670 5678 5683 5685 5687 5688 5688 5689 5685 5681 5679 5678 5676 5676 5676 5677 5677 5677 5676 5675 5676 5678 5676 5672 5673 5673 5672 5670 5668 5667 5665 5664 5661 5659 5657 5654 5652
5635 5637 5635 5637 5646 5653 5661 5666 5672 5676 5677 5679 5680 5679 5679 5675 5671 5668 5666 5665 5664 5663 5664 5664 5664 5662 5660 5661 5662 5661 5661 5662 5661 5658 5656 5655 5653 5651 5649 5647 5645 5643 5640 5638
5631 5632 5631 5634 5642 5648 5654 5658 5663 5665 5667 5668 5668 5667 5666 5664 5660 5657 5654 5652 5650 5650 5650 5651 5650 5648 5647 5648 5648 5648 5648 5649 5647 5644 5642 5640 5638 5637 5635 5633 5630 5628 5625 5623
5627 5627 5629 5632 5638 5639 5642 5649 5654 5655 5655 5656 5656 5653 5652 5652 5648 5646 5643 5640 5638 5638 5637 5637 5637 5636 5635 5635 5634 5634 5635 5635 5633 5630 5628 5625 5623 5621 5619 5617 5615 5613 5611 5609